Forside
METAR-TAF:

METAR-TAF

Lufthavne :

Adrian, Michigan, USA

Breddekreds: 41-52-04N, længdekreds: 084-04-46W, højde: 244 m

Aktuelle vejr

Denne rapport blev lavet for 46 minutter siden, kl. 17:53 UTC
Vind 12 kt fra nordnordvest med vindstød på up til 23 kt
Temperatur 5°C
Fugtighed 52%
Tryk 1024 hPa
Sigt: 16.1 km
skyfri

METAR: KADG 021753Z AUTO 33012G23KT 10SM CLR 05/M04 A3024 RMK AO2 SLP248 T00501044 10050 21022 50003 TSNO

Tid: 13:39 (18:39 UTC)


TAF: fraværende

Vejrobservationer og prognoser fra mere end 4000 lufthavne (METAR og TAF).

De gule og røde prikker repræsenterer de meteorologiske stationer.

Flyt musen over at se navnet på stationen.

Så klik over at se vejr observationer og prognoser.

At skifte det kort: Klik på de grønne knapper med et sort kors for at zoome ind; på den grønne knap med en bindestreg for at zoome ud; eller på de grønne pile for tilstødende kort.


METAR-TAF: